Time,TemperatureF,DewpointF,PressureIn,WindDirection,WindDirectionDegrees,WindSpeedMPH,WindSpeedGustMPH,Humidity,HourlyPrecipIn,Conditions,Clouds,dailyrainin,SoftwareType,DateUTC
2013-11-03 00:01:00,47.0,40.8,30.10,ENE,58,0.0,3.0,79,0.00,,SKC,0.00,VWS V13.00,2013-11-03 05:01:00,
2013-11-03 00:06:00,46.9,40.7,30.10,ENE,58,0.0,0.0,79,0.00,,SKC,0.00,VWS V13.00,2013-11-03 05:06:00,
2013-11-03 00:11:00,46.8,41.0,30.10,ENE,58,0.0,0.0,80,0.00,,SKC,0.00,VWS V13.00,2013-11-03 05:11:00,
2013-11-03 00:16:00,46.9,40.7,30.10,NNW,330,0.0,5.0,79,0.00,,SKC,0.00,VWS V13.00,2013-11-03 05:16:00,
2013-11-03 00:21:00,47.0,40.5,30.10,NNW,330,0.0,5.0,78,0.00,,SKC,0.00,VWS V13.00,2013-11-03 05:21:00,
2013-11-03 00:26:00,47.1,40.9,30.10,NNW,330,0.0,5.0,79,0.00,,SKC,0.00,VWS V13.00,2013-11-03 05:26:00,
2013-11-03 00:31:00,47.2,41.0,30.10,NNW,330,0.0,5.0,79,0.00,,SKC,0.00,VWS V13.00,2013-11-03 05:31:00,
2013-11-03 00:36:00,47.3,41.1,30.10,NNW,330,0.0,0.0,79,0.00,,SKC,0.00,VWS V13.00,2013-11-03 05:36:00,
2013-11-03 00:41:00,47.3,41.1,30.10,NNW,330,0.0,1.0,79,0.00,,SKC,0.00,VWS V13.00,2013-11-03 05:41:00,
2013-11-03 00:46:00,47.2,41.0,30.10,NNW,331,1.0,5.0,79,0.00,,SKC,0.00,VWS V13.00,2013-11-03 05:46:00,
2013-11-03 00:51:00,47.0,40.8,30.10,NNW,329,1.0,5.0,79,0.00,,SKC,0.00,VWS V13.00,2013-11-03 05:51:00,
2013-11-03 00:56:00,46.9,41.1,30.10,NW,321,0.0,5.0,80,0.00,,SKC,0.00,VWS V13.00,2013-11-03 05:56:00,
2013-11-03 01:00:00,46.5,41.3,30.10,NNW,340,0.0,7.0,82,0.00,,SKC,0.00,VWS V13.00,2013-11-03 06:00:00,
2013-11-03 01:01:00,46.7,40.9,30.10,NNW,340,0.0,5.0,80,0.00,,SKC,0.00,VWS V13.00,2013-11-03 06:01:00,
2013-11-03 01:02:00,46.4,41.5,30.11,NNW,340,0.0,7.0,83,0.00,,SKC,0.00,VWS V13.00,2013-11-03 06:02:00,
2013-11-03 01:03:00,46.3,41.4,30.11,NNW,340,0.0,7.0,83,0.00,,SKC,0.00,VWS V13.00,2013-11-03 06:03:00,
2013-11-03 01:04:00,46.3,41.4,30.11,NNW,340,1.0,7.0,83,0.00,,SKC,0.00,VWS V13.00,2013-11-03 06:04:00,
2013-11-03 01:06:00,46.5,41.0,30.10,NNW,340,0.0,2.0,81,0.00,,SKC,0.00,VWS V13.00,2013-11-03 06:06:00,
2013-11-03 01:11:00,46.4,40.9,30.10,NNW,334,2.0,2.0,81,0.00,,SKC,0.00,VWS V13.00,2013-11-03 06:11:00,
2013-11-03 01:16:00,46.3,41.1,30.10,NNW,340,0.0,2.0,82,0.00,,SKC,0.00,VWS V13.00,2013-11-03 06:16:00,
2013-11-03 01:21:00,46.3,41.1,30.10,North,360,1.0,6.0,82,0.00,,SKC,0.00,VWS V13.00,2013-11-03 06:21:00,
2013-11-03 01:26:00,46.3,41.1,30.10,North,5,0.0,6.0,82,0.00,,SKC,0.00,VWS V13.00,2013-11-03 06:26:00,
2013-11-03 01:31:00,46.3,41.4,30.10,NNW,345,1.0,7.0,83,0.00,,SKC,0.00,VWS V13.00,2013-11-03 06:31:00,
2013-11-03 01:36:00,46.5,41.3,30.10,North,5,2.0,5.0,82,0.00,,SKC,0.00,VWS V13.00,2013-11-03 06:36:00,
2013-11-03 01:41:00,46.7,41.5,30.10,North,355,1.0,7.0,82,0.00,,SKC,0.00,VWS V13.00,2013-11-03 06:41:00,
2013-11-03 01:46:00,46.7,41.5,30.10,North,350,4.0,7.0,82,0.00,,SKC,0.00,VWS V13.00,2013-11-03 06:46:00,
2013-11-03 01:51:00,46.7,41.5,30.10,NNW,344,3.0,7.0,82,0.00,,SKC,0.00,VWS V13.00,2013-11-03 06:51:00,
2013-11-03 01:56:00,46.7,41.5,30.10,NNW,340,1.0,7.0,82,0.00,,SKC,0.00,VWS V13.00,2013-11-03 06:56:00,
2013-11-03 01:01:00,46.5,41.6,30.10,NNW,340,1.0,7.0,83,0.00,,SKC,0.00,VWS V13.00,2013-11-03 07:01:00,
2013-11-03 01:06:00,46.3,41.4,30.11,NNW,340,1.0,7.0,83,0.00,,SKC,0.00,VWS V13.00,2013-11-03 07:06:00,
2013-11-03 01:11:00,46.2,41.6,30.11,North,350,0.0,7.0,84,0.00,,SKC,0.00,VWS V13.00,2013-11-03 07:11:00,
2013-11-03 01:15:00,46.2,41.6,30.11,NNW,345,3.0,7.0,84,0.00,,SKC,0.00,VWS V13.00,2013-11-03 07:15:00,
2013-11-03 01:20:00,46.1,41.5,30.11,NNW,340,1.0,7.0,84,0.00,,SKC,0.00,VWS V13.00,2013-11-03 07:20:00,
2013-11-03 01:25:00,46.1,41.5,30.11,NNW,340,1.0,7.0,84,0.00,,SKC,0.00,VWS V13.00,2013-11-03 07:25:00,
2013-11-03 01:30:00,46.0,41.4,30.11,North,355,2.0,7.0,84,0.00,,SKC,0.00,VWS V13.00,2013-11-03 07:30:00,
2013-11-03 01:35:00,45.9,41.7,30.11,North,360,0.0,7.0,85,0.00,,SKC,0.00,VWS V13.00,2013-11-03 07:35:00,
2013-11-03 01:40:00,45.9,41.7,30.11,North,355,3.0,7.0,85,0.00,,SKC,0.00,VWS V13.00,2013-11-03 07:40:00,
2013-11-03 01:45:00,45.9,41.7,30.11,North,9,1.0,8.0,85,0.00,,SKC,0.00,VWS V13.00,2013-11-03 07:45:00,
2013-11-03 01:50:00,45.8,41.5,30.11,North,360,7.0,8.0,85,0.00,,SKC,0.00,VWS V13.00,2013-11-03 07:50:00,
2013-11-03 01:55:00,45.8,41.5,30.11,NNW,346,5.0,8.0,85,0.00,,SKC,0.00,VWS V13.00,2013-11-03 07:55:00,
2013-11-03 02:01:00,45.7,41.5,30.11,North,5,3.0,8.0,85,0.00,,SKC,0.00,VWS V13.00,2013-11-03 08:01:00,
2013-11-03 02:06:00,45.7,41.8,30.11,North,11,4.0,10.0,86,0.00,,SKC,0.00,VWS V13.00,2013-11-03 08:06:00,
2013-11-03 02:11:00,45.7,41.5,30.12,North,355,6.0,10.0,85,0.00,,SKC,0.00,VWS V13.00,2013-11-03 08:11:00,
2013-11-03 02:16:00,45.6,41.4,30.12,NNE,20,1.0,10.0,85,0.00,,SKC,0.00,VWS V13.00,2013-11-03 08:16:00,
2013-11-03 02:21:00,45.5,41.3,30.12,NNE,25,0.0,10.0,85,0.00,,SKC,0.00,VWS V13.00,2013-11-03 08:21:00,
2013-11-03 02:26:00,45.3,41.4,30.11,NNE,32,2.0,10.0,86,0.00,,SKC,0.00,VWS V13.00,2013-11-03 08:26:00,
2013-11-03 02:31:00,44.9,41.0,30.12,NNE,27,2.0,10.0,86,0.00,,SKC,0.00,VWS V13.00,2013-11-03 08:31:00,
2013-11-03 02:36:00,44.6,41.0,30.12,North,360,0.0,5.0,87,0.00,,SKC,0.00,VWS V13.00,2013-11-03 08:36:00,
2013-11-03 02:41:00,44.3,40.7,30.13,North,11,2.0,5.0,87,0.00,,SKC,0.00,VWS V13.00,2013-11-03 08:41:00,
2013-11-03 02:46:00,44.2,40.9,30.13,NNE,28,1.0,5.0,88,0.00,,SKC,0.00,VWS V13.00,2013-11-03 08:46:00,
2013-11-03 02:51:00,44.0,40.4,30.13,NE,38,0.0,5.0,87,0.00,,SKC,0.00,VWS V13.00,2013-11-03 08:51:00,
2013-11-03 02:56:00,43.7,40.4,30.13,NE,38,0.0,5.0,88,0.00,,SKC,0.00,VWS V13.00,2013-11-03 08:56:00,
2013-11-03 03:01:00,43.3,40.3,30.13,NE,38,0.0,5.0,89,0.00,,SKC,0.00,VWS V13.00,2013-11-03 09:01:00,
2013-11-03 03:06:00,43.2,40.5,30.13,NE,41,0.0,3.0,90,0.00,,SKC,0.00,VWS V13.00,2013-11-03 09:06:00,
2013-11-03 03:11:00,43.1,40.4,30.14,NE,41,0.0,3.0,90,0.00,,SKC,0.00,VWS V13.00,2013-11-03 09:11:00,
2013-11-03 03:16:00,43.0,40.3,30.14,NE,38,0.0,3.0,90,0.00,,SKC,0.00,VWS V13.00,2013-11-03 09:16:00,
2013-11-03 03:21:00,42.8,40.1,30.14,NE,38,0.0,3.0,90,0.00,,SKC,0.00,VWS V13.00,2013-11-03 09:21:00,
2013-11-03 03:26:00,42.6,40.2,30.14,NE,38,0.0,3.0,91,0.00,,SKC,0.00,VWS V13.00,2013-11-03 09:26:00,
2013-11-03 03:31:00,42.4,39.7,30.14,NE,38,0.0,3.0,90,0.00,,SKC,0.00,VWS V13.00,2013-11-03 09:31:00,
2013-11-03 03:36:00,42.2,39.8,30.14,NE,38,0.0,0.0,91,0.00,,SKC,0.00,VWS V13.00,2013-11-03 09:36:00,
2013-11-03 03:41:00,42.2,40.0,30.15,NE,38,0.0,0.0,92,0.00,,SKC,0.00,VWS V13.00,2013-11-03 09:41:00,
2013-11-03 03:46:00,42.1,40.0,30.15,NE,38,0.0,0.0,92,0.00,,SKC,0.00,VWS V13.00,2013-11-03 09:46:00,
2013-11-03 03:51:00,42.0,39.8,30.15,NE,38,0.0,0.0,92,0.00,,SKC,0.00,VWS V13.00,2013-11-03 09:51:00,
2013-11-03 03:56:00,42.0,40.1,30.16,NE,38,0.0,0.0,93,0.00,,SKC,0.00,VWS V13.00,2013-11-03 09:56:00,
2013-11-03 04:01:00,42.1,40.2,30.16,NE,38,0.0,0.0,93,0.00,,SKC,0.00,VWS V13.00,2013-11-03 10:01:00,
2013-11-03 04:06:00,42.1,40.2,30.16,NE,38,0.0,0.0,93,0.00,,SKC,0.00,VWS V13.00,2013-11-03 10:06:00,
2013-11-03 04:11:00,42.1,40.2,30.16,NE,38,0.0,0.0,93,0.00,,SKC,0.00,VWS V13.00,2013-11-03 10:11:00,
2013-11-03 04:16:00,42.0,40.1,30.17,NE,38,0.0,0.0,93,0.00,,SKC,0.00,VWS V13.00,2013-11-03 10:16:00,
2013-11-03 04:21:00,41.9,40.0,30.17,NE,38,0.0,0.0,93,0.00,,SKC,0.00,VWS V13.00,2013-11-03 10:21:00,
2013-11-03 04:25:00,41.9,40.0,30.17,NE,38,0.0,0.0,93,0.00,,SKC,0.00,VWS V13.00,2013-11-03 10:25:00,
2013-11-03 04:30:00,41.8,39.9,30.17,NE,38,0.0,0.0,93,0.00,,SKC,0.00,VWS V13.00,2013-11-03 10:30:00,
2013-11-03 04:35:00,41.7,39.8,30.17,NE,38,0.0,0.0,93,0.00,,SKC,0.00,VWS V13.00,2013-11-03 10:35:00,
2013-11-03 04:40:00,41.6,40.0,30.17,NE,38,0.0,0.0,94,0.00,,SKC,0.00,VWS V13.00,2013-11-03 10:40:00,
2013-11-03 04:45:00,41.5,39.6,30.17,NE,38,0.0,0.0,93,0.00,,SKC,0.00,VWS V13.00,2013-11-03 10:45:00,
2013-11-03 04:50:00,41.4,39.5,30.17,NE,38,0.0,0.0,93,0.00,,SKC,0.00,VWS V13.00,2013-11-03 10:50:00,
2013-11-03 04:55:00,41.1,39.2,30.17,NE,38,0.0,0.0,93,0.00,,SKC,0.00,VWS V13.00,2013-11-03 10:55:00,
2013-11-03 05:00:00,40.9,39.0,30.18,NE,38,0.0,0.0,93,0.00,,SKC,0.00,VWS V13.00,2013-11-03 11:00:00,
2013-11-03 05:05:00,40.6,38.7,30.18,NE,38,0.0,0.0,93,0.00,,SKC,0.00,VWS V13.00,2013-11-03 11:05:00,
2013-11-03 05:10:00,40.4,38.8,30.18,NE,38,0.0,0.0,94,0.00,,SKC,0.00,VWS V13.00,2013-11-03 11:10:00,
2013-11-03 05:15:00,40.3,38.7,30.18,NE,38,0.0,0.0,94,0.00,,SKC,0.00,VWS V13.00,2013-11-03 11:15:00,
2013-11-03 05:20:00,40.3,39.0,30.19,NE,38,0.0,0.0,95,0.00,,SKC,0.00,VWS V13.00,2013-11-03 11:20:00,
2013-11-03 05:25:00,40.3,39.0,30.19,NE,38,0.0,0.0,95,0.00,,SKC,0.00,VWS V13.00,2013-11-03 11:25:00,
2013-11-03 05:30:00,40.2,38.9,30.19,NE,38,0.0,0.0,95,0.00,,SKC,0.00,VWS V13.00,2013-11-03 11:30:00,
2013-11-03 05:35:00,40.0,38.4,30.19,NE,38,0.0,0.0,94,0.00,,SKC,0.00,VWS V13.00,2013-11-03 11:35:00,
2013-11-03 05:40:00,39.8,38.2,30.19,NE,38,0.0,0.0,94,0.00,,SKC,0.00,VWS V13.00,2013-11-03 11:40:00,
2013-11-03 05:45:00,39.6,38.3,30.19,NE,38,0.0,0.0,95,0.00,,SKC,0.00,VWS V13.00,2013-11-03 11:45:00,
2013-11-03 05:50:00,39.6,38.3,30.19,NE,38,0.0,0.0,95,0.00,,SKC,0.00,VWS V13.00,2013-11-03 11:50:00,
2013-11-03 05:55:00,39.6,38.3,30.19,NE,38,0.0,0.0,95,0.00,,SKC,0.00,VWS V13.00,2013-11-03 11:55:00,
2013-11-03 06:00:00,39.5,38.2,30.20,NE,38,0.0,0.0,95,0.00,,SKC,0.00,VWS V13.00,2013-11-03 12:00:00,
2013-11-03 06:05:00,39.4,38.1,30.20,NE,38,0.0,0.0,95,0.00,,SKC,0.00,VWS V13.00,2013-11-03 12:05:00,
2013-11-03 06:10:00,39.4,38.1,30.20,NE,38,0.0,0.0,95,0.00,,SKC,0.00,VWS V13.00,2013-11-03 12:10:00,
2013-11-03 06:15:00,39.5,38.5,30.21,NE,38,0.0,0.0,96,0.00,,SKC,0.00,VWS V13.00,2013-11-03 12:15:00,
2013-11-03 06:20:00,39.4,38.4,30.21,NE,38,0.0,0.0,96,0.00,,SKC,0.00,VWS V13.00,2013-11-03 12:20:00,
2013-11-03 06:25:00,39.2,37.9,30.21,NE,38,0.0,0.0,95,0.00,,SKC,0.00,VWS V13.00,2013-11-03 12:25:00,
2013-11-03 06:30:00,39.2,38.2,30.21,NE,38,0.0,0.0,96,0.00,,SKC,0.00,VWS V13.00,2013-11-03 12:30:00,
2013-11-03 06:35:00,39.1,38.1,30.22,NE,38,0.0,0.0,96,0.00,,SKC,0.00,VWS V13.00,2013-11-03 12:35:00,
2013-11-03 06:40:00,39.3,38.3,30.22,NE,38,0.0,0.0,96,0.00,,SKC,0.00,VWS V13.00,2013-11-03 12:40:00,
2013-11-03 06:45:00,39.7,38.9,30.22,NE,38,0.0,0.0,97,0.00,,SKC,0.00,VWS V13.00,2013-11-03 12:45:00,
2013-11-03 06:50:00,40.2,39.4,30.22,NE,38,0.0,0.0,97,0.00,,SKC,0.00,VWS V13.00,2013-11-03 12:50:00,
2013-11-03 06:55:00,40.7,39.9,30.22,NE,38,0.0,1.0,97,0.00,,SKC,0.00,VWS V13.00,2013-11-03 12:55:00,
2013-11-03 07:00:00,41.1,40.3,30.23,NE,38,0.0,1.0,97,0.00,,SKC,0.00,VWS V13.00,2013-11-03 13:00:00,
2013-11-03 07:05:00,41.6,40.8,30.23,NE,38,0.0,1.0,97,0.00,,SKC,0.00,VWS V13.00,2013-11-03 13:05:00,
2013-11-03 07:10:00,42.3,41.5,30.23,NE,38,2.0,2.0,97,0.00,,SKC,0.00,VWS V13.00,2013-11-03 13:10:00,
2013-11-03 07:15:00,42.9,42.1,30.23,NNE,21,1.0,6.0,97,0.00,,SKC,0.00,VWS V13.00,2013-11-03 13:15:00,
2013-11-03 07:20:00,43.6,42.3,30.23,NNE,13,3.0,6.0,95,0.00,,SKC,0.00,VWS V13.00,2013-11-03 13:20:00,
2013-11-03 07:25:00,44.1,42.2,30.23,NNE,17,4.0,6.0,93,0.00,,SKC,0.00,VWS V13.00,2013-11-03 13:25:00,
2013-11-03 07:30:00,44.7,42.5,30.23,NNE,17,3.0,6.0,92,0.00,,SKC,0.00,VWS V13.00,2013-11-03 13:30:00,
2013-11-03 07:35:00,45.1,42.6,30.23,North,360,2.0,4.0,91,0.00,,SKC,0.00,VWS V13.00,2013-11-03 13:35:00,
2013-11-03 07:40:00,45.4,42.6,30.24,NE,47,5.0,6.0,90,0.00,,SKC,0.00,VWS V13.00,2013-11-03 13:40:00,
2013-11-03 07:45:00,45.7,43.2,30.23,NE,43,6.0,8.0,91,0.00,,SKC,0.00,VWS V13.00,2013-11-03 13:45:00,
2013-11-03 07:50:00,46.0,43.0,30.24,NNE,26,4.0,8.0,89,0.00,,SKC,0.00,VWS V13.00,2013-11-03 13:50:00,
2013-11-03 07:55:00,46.3,43.2,30.24,NE,49,1.0,8.0,89,0.00,,SKC,0.00,VWS V13.00,2013-11-03 13:55:00,
2013-11-03 08:00:00,46.7,43.6,30.24,NE,52,5.0,8.0,89,0.00,,SKC,0.00,VWS V13.00,2013-11-03 14:00:00,
2013-11-03 08:05:00,46.9,43.2,30.24,NE,54,5.0,7.0,87,0.00,,SKC,0.00,VWS V13.00,2013-11-03 14:05:00,
2013-11-03 08:10:00,47.3,43.0,30.25,NE,51,6.0,9.0,85,0.00,,SKC,0.00,VWS V13.00,2013-11-03 14:10:00,
2013-11-03 08:15:00,47.8,43.2,30.25,ENE,66,9.0,10.0,84,0.00,,SKC,0.00,VWS V13.00,2013-11-03 14:15:00,
2013-11-03 08:20:00,48.3,43.7,30.25,NE,54,6.0,10.0,84,0.00,,SKC,0.00,VWS V13.00,2013-11-03 14:20:00,
2013-11-03 08:25:00,48.8,43.6,30.25,NE,37,4.0,10.0,82,0.00,,SKC,0.00,VWS V13.00,2013-11-03 14:25:00,
2013-11-03 08:30:00,49.1,43.2,30.26,NNE,24,4.0,10.0,80,0.00,,SKC,0.00,VWS V13.00,2013-11-03 14:30:00,
2013-11-03 08:35:00,49.4,43.5,30.26,NE,46,4.0,8.0,80,0.00,,SKC,0.00,VWS V13.00,2013-11-03 14:35:00,
2013-11-03 08:40:00,49.7,43.8,30.26,NNE,24,4.0,8.0,80,0.00,,SKC,0.00,VWS V13.00,2013-11-03 14:40:00,
2013-11-03 08:45:00,49.9,43.3,30.26,East,83,7.0,8.0,78,0.00,,SKC,0.00,VWS V13.00,2013-11-03 14:45:00,
2013-11-03 08:50:00,50.4,43.8,30.26,ENE,78,1.0,8.0,78,0.00,,SKC,0.00,VWS V13.00,2013-11-03 14:50:00,
2013-11-03 08:55:00,50.8,43.9,30.26,NE,53,8.0,8.0,77,0.00,,SKC,0.00,VWS V13.00,2013-11-03 14:55:00,
2013-11-03 09:00:00,51.2,44.2,30.26,NE,41,2.0,9.0,77,0.00,,SKC,0.00,VWS V13.00,2013-11-03 15:00:00,
2013-11-03 09:05:00,51.5,43.8,30.26,ENE,63,4.0,7.0,75,0.00,,SKC,0.00,VWS V13.00,2013-11-03 15:05:00,
2013-11-03 09:10:00,52.0,44.0,30.26,NE,53,6.0,7.0,74,0.00,,SKC,0.00,VWS V13.00,2013-11-03 15:10:00,
2013-11-03 09:15:00,52.3,43.5,30.26,ENE,71,4.0,10.0,72,0.00,,SKC,0.00,VWS V13.00,2013-11-03 15:15:00,
2013-11-03 09:20:00,52.4,42.9,30.27,ENE,60,6.0,12.0,70,0.00,,SKC,0.00,VWS V13.00,2013-11-03 15:20:00,
2013-11-03 09:25:00,52.7,42.8,30.27,ENE,67,2.0,12.0,69,0.00,,SKC,0.00,VWS V13.00,2013-11-03 15:25:00,
2013-11-03 09:30:00,53.0,43.1,30.27,ENE,74,6.0,12.0,69,0.00,,SKC,0.00,VWS V13.00,2013-11-03 15:30:00,
2013-11-03 09:35:00,53.3,43.0,30.27,ENE,69,9.0,10.0,68,0.00,,SKC,0.00,VWS V13.00,2013-11-03 15:35:00,
2013-11-03 09:40:00,53.3,42.6,30.27,ENE,71,5.0,10.0,67,0.00,,SKC,0.00,VWS V13.00,2013-11-03 15:40:00,
2013-11-03 09:45:00,53.3,42.2,30.27,NE,44,4.0,10.0,66,0.00,,SKC,0.00,VWS V13.00,2013-11-03 15:45:00,
2013-11-03 09:50:00,53.5,42.4,30.27,NE,56,7.0,10.0,66,0.00,,SKC,0.00,VWS V13.00,2013-11-03 15:50:00,
2013-11-03 09:55:00,53.9,43.2,30.27,ESE,107,6.0,10.0,67,0.00,,SKC,0.00,VWS V13.00,2013-11-03 15:55:00,
2013-11-03 10:00:00,54.5,43.0,30.27,East,94,2.0,10.0,65,0.00,,SKC,0.00,VWS V13.00,2013-11-03 16:00:00,
2013-11-03 10:05:00,55.0,42.7,30.27,NE,54,9.0,11.0,63,0.00,,SKC,0.00,VWS V13.00,2013-11-03 16:05:00,
2013-11-03 10:10:00,55.1,41.9,30.27,ENE,71,6.0,11.0,61,0.00,,SKC,0.00,VWS V13.00,2013-11-03 16:10:00,
2013-11-03 10:15:00,55.1,41.9,30.26,East,92,2.0,11.0,61,0.00,,SKC,0.00,VWS V13.00,2013-11-03 16:15:00,
2013-11-03 10:20:00,55.3,42.9,30.26,East,100,4.0,11.0,63,0.00,,SKC,0.00,VWS V13.00,2013-11-03 16:20:00,
2013-11-03 10:25:00,55.7,41.6,30.26,NE,55,9.0,12.0,59,0.00,,SKC,0.00,VWS V13.00,2013-11-03 16:25:00,
2013-11-03 10:30:00,55.6,41.5,30.26,ENE,72,2.0,12.0,59,0.00,,SKC,0.00,VWS V13.00,2013-11-03 16:30:00,
2013-11-03 10:35:00,55.9,41.3,30.26,NNE,30,1.0,7.0,58,0.00,,SKC,0.00,VWS V13.00,2013-11-03 16:35:00,
2013-11-03 10:40:00,56.0,41.0,30.26,NNE,27,4.0,8.0,57,0.00,,SKC,0.00,VWS V13.00,2013-11-03 16:40:00,
2013-11-03 10:45:00,56.2,40.7,30.26,NE,56,2.0,10.0,56,0.00,,SKC,0.00,VWS V13.00,2013-11-03 16:45:00,
2013-11-03 10:50:00,56.4,40.9,30.26,NNW,330,1.0,10.0,56,0.00,,SKC,0.00,VWS V13.00,2013-11-03 16:50:00,
2013-11-03 10:55:00,56.9,41.8,30.25,ESE,116,1.0,10.0,57,0.00,,SKC,0.00,VWS V13.00,2013-11-03 16:55:00,
2013-11-03 11:00:00,57.3,39.8,30.25,ENE,75,6.0,13.0,52,0.00,,SKC,0.00,VWS V13.00,2013-11-03 17:00:00,
2013-11-03 11:05:00,57.5,40.5,30.25,NNE,29,4.0,7.0,53,0.00,,SKC,0.00,VWS V13.00,2013-11-03 17:05:00,
2013-11-03 11:10:00,57.8,40.8,30.25,NW,317,6.0,10.0,53,0.00,,SKC,0.00,VWS V13.00,2013-11-03 17:10:00,
2013-11-03 11:15:00,57.8,40.8,30.25,ESE,110,1.0,10.0,53,0.00,,SKC,0.00,VWS V13.00,2013-11-03 17:15:00,
2013-11-03 11:20:00,58.0,40.5,30.24,ENE,77,0.0,10.0,52,0.00,,SKC,0.00,VWS V13.00,2013-11-03 17:20:00,
2013-11-03 11:25:00,58.4,39.8,30.23,ENE,72,7.0,11.0,50,0.00,,SKC,0.00,VWS V13.00,2013-11-03 17:25:00,
2013-11-03 11:30:00,58.5,39.4,30.23,NNE,28,4.0,12.0,49,0.00,,SKC,0.00,VWS V13.00,2013-11-03 17:30:00,
2013-11-03 11:35:00,58.5,38.9,30.23,NNW,346,7.0,9.0,48,0.00,,SKC,0.00,VWS V13.00,2013-11-03 17:35:00,
2013-11-03 11:40:00,58.6,40.0,30.22,NW,321,8.0,9.0,50,0.00,,SKC,0.00,VWS V13.00,2013-11-03 17:40:00,
2013-11-03 11:45:00,58.6,39.0,30.22,NE,42,2.0,9.0,48,0.00,,SKC,0.00,VWS V13.00,2013-11-03 17:45:00,
2013-11-03 11:50:00,58.8,38.6,30.22,NNE,12,2.0,10.0,47,0.00,,SKC,0.00,VWS V13.00,2013-11-03 17:50:00,
2013-11-03 11:55:00,58.9,39.3,30.22,NNE,30,8.0,10.0,48,0.00,,SKC,0.00,VWS V13.00,2013-11-03 17:55:00,
2013-11-03 12:00:00,59.1,38.9,30.22,NW,315,6.0,10.0,47,0.00,,SKC,0.00,VWS V13.00,2013-11-03 18:00:00,
2013-11-03 12:05:00,59.4,38.1,30.21,NNE,28,1.0,7.0,45,0.00,,SKC,0.00,VWS V13.00,2013-11-03 18:05:00,
2013-11-03 12:10:00,59.8,38.4,30.21,NE,42,9.0,9.0,45,0.00,,SKC,0.00,VWS V13.00,2013-11-03 18:10:00,
2013-11-03 12:16:00,59.8,37.9,30.21,NE,41,3.0,9.0,44,0.00,,SKC,0.00,VWS V13.00,2013-11-03 18:16:00,
2013-11-03 12:21:00,60.0,39.7,30.21,WNW,298,7.0,10.0,47,0.00,,SKC,0.00,VWS V13.00,2013-11-03 18:21:00,
2013-11-03 12:26:00,59.9,39.1,30.20,WNW,303,3.0,10.0,46,0.00,,SKC,0.00,VWS V13.00,2013-11-03 18:26:00,
2013-11-03 12:31:00,60.1,39.3,30.20,NNW,328,6.0,10.0,46,0.00,,SKC,0.00,VWS V13.00,2013-11-03 18:31:00,
2013-11-03 12:36:00,60.3,38.9,30.20,North,349,0.0,9.0,45,0.00,,SKC,0.00,VWS V13.00,2013-11-03 18:36:00,
2013-11-03 12:41:00,60.3,38.3,30.20,WNW,294,0.0,9.0,44,0.00,,SKC,0.00,VWS V13.00,2013-11-03 18:41:00,
2013-11-03 12:46:00,60.4,38.4,30.20,NNW,342,5.0,10.0,44,0.00,,SKC,0.00,VWS V13.00,2013-11-03 18:46:00,
2013-11-03 12:50:00,60.3,38.9,30.19,North,10,5.0,10.0,45,0.00,,SKC,0.00,VWS V13.00,2013-11-03 18:50:00,
2013-11-03 12:55:00,60.1,38.1,30.19,North,351,5.0,10.0,44,0.00,,SKC,0.00,VWS V13.00,2013-11-03 18:55:00,
2013-11-03 13:00:00,59.9,38.5,30.19,NW,314,0.0,10.0,45,0.00,,SKC,0.00,VWS V13.00,2013-11-03 19:00:00,
2013-11-03 13:05:00,60.2,38.8,30.19,NNE,24,9.0,10.0,45,0.00,,SKC,0.00,VWS V13.00,2013-11-03 19:05:00,
2013-11-03 13:10:00,60.3,38.9,30.18,NNW,344,9.0,11.0,45,0.00,,SKC,0.00,VWS V13.00,2013-11-03 19:10:00,
2013-11-03 13:15:00,60.5,37.9,30.18,NE,44,5.0,11.0,43,0.00,,SKC,0.00,VWS V13.00,2013-11-03 19:15:00,
2013-11-03 13:20:00,60.7,39.3,30.18,ENE,59,11.0,11.0,45,0.00,,SKC,0.00,VWS V13.00,2013-11-03 19:20:00,
2013-11-03 13:25:00,60.7,38.7,30.18,North,9,5.0,11.0,44,0.00,,SKC,0.00,VWS V13.00,2013-11-03 19:25:00,
2013-11-03 13:30:00,60.6,38.6,30.18,ENE,72,2.0,11.0,44,0.00,,SKC,0.00,VWS V13.00,2013-11-03 19:30:00,
2013-11-03 13:35:00,60.8,37.6,30.18,NNE,25,3.0,8.0,42,0.00,,SKC,0.00,VWS V13.00,2013-11-03 19:35:00,
2013-11-03 13:40:00,60.8,38.8,30.18,NE,46,6.0,8.0,44,0.00,,SKC,0.00,VWS V13.00,2013-11-03 19:40:00,
2013-11-03 13:45:00,61.2,37.3,30.18,North,355,3.0,8.0,41,0.00,,SKC,0.00,VWS V13.00,2013-11-03 19:45:00,
2013-11-03 13:50:00,61.0,37.8,30.17,NNW,330,2.0,10.0,42,0.00,,SKC,0.00,VWS V13.00,2013-11-03 19:50:00,
2013-11-03 13:55:00,61.2,36.7,30.17,NE,44,6.0,10.0,40,0.00,,SKC,0.00,VWS V13.00,2013-11-03 19:55:00,
2013-11-03 14:00:00,61.0,36.5,30.17,ENE,65,4.0,10.0,40,0.00,,SKC,0.00,VWS V13.00,2013-11-03 20:00:00,
2013-11-03 14:05:00,61.2,36.7,30.17,North,5,6.0,7.0,40,0.00,,SKC,0.00,VWS V13.00,2013-11-03 20:05:00,
2013-11-03 14:10:00,61.3,36.8,30.18,North,355,2.0,7.0,40,0.00,,SKC,0.00,VWS V13.00,2013-11-03 20:10:00,
2013-11-03 14:15:00,61.6,37.1,30.18,NNE,12,5.0,7.0,40,0.00,,SKC,0.00,VWS V13.00,2013-11-03 20:15:00,
2013-11-03 14:20:00,61.3,36.2,30.18,ENE,60,3.0,10.0,39,0.00,,SKC,0.00,VWS V13.00,2013-11-03 20:20:00,
2013-11-03 14:25:00,61.2,37.3,30.17,North,360,5.0,10.0,41,0.00,,SKC,0.00,VWS V13.00,2013-11-03 20:25:00,
2013-11-03 14:30:00,61.3,36.2,30.17,NNE,24,4.0,10.0,39,0.00,,SKC,0.00,VWS V13.00,2013-11-03 20:30:00,
2013-11-03 14:35:00,61.2,36.1,30.17,NE,50,2.0,6.0,39,0.00,,SKC,0.00,VWS V13.00,2013-11-03 20:35:00,
2013-11-03 14:40:00,61.4,36.9,30.17,ENE,61,1.0,7.0,40,0.00,,SKC,0.00,VWS V13.00,2013-11-03 20:40:00,
2013-11-03 14:45:00,61.4,36.9,30.17,NNE,27,5.0,9.0,40,0.00,,SKC,0.00,VWS V13.00,2013-11-03 20:45:00,
2013-11-03 14:50:00,61.5,36.3,30.17,NE,36,10.0,10.0,39,0.00,,SKC,0.00,VWS V13.00,2013-11-03 20:50:00,
2013-11-03 14:55:00,61.2,35.4,30.17,NNE,23,3.0,10.0,38,0.00,,SKC,0.00,VWS V13.00,2013-11-03 20:55:00,
2013-11-03 15:00:00,61.0,35.9,30.17,NNE,20,4.0,10.0,39,0.00,,SKC,0.00,VWS V13.00,2013-11-03 21:00:00,
2013-11-03 15:05:00,61.0,35.2,30.17,NE,44,6.0,8.0,38,0.00,,SKC,0.00,VWS V13.00,2013-11-03 21:05:00,
2013-11-03 15:10:00,61.1,35.3,30.17,NNE,28,4.0,8.0,38,0.00,,SKC,0.00,VWS V13.00,2013-11-03 21:10:00,
2013-11-03 15:15:00,61.1,36.6,30.17,NNE,14,2.0,8.0,40,0.00,,SKC,0.00,VWS V13.00,2013-11-03 21:15:00,
2013-11-03 15:20:00,61.1,36.0,30.17,NNE,26,5.0,9.0,39,0.00,,SKC,0.00,VWS V13.00,2013-11-03 21:20:00,
2013-11-03 15:25:00,61.0,36.5,30.17,North,5,2.0,9.0,40,0.00,,SKC,0.00,VWS V13.00,2013-11-03 21:25:00,
2013-11-03 15:30:00,60.9,35.8,30.17,NE,56,5.0,9.0,39,0.00,,SKC,0.00,VWS V13.00,2013-11-03 21:30:00,
2013-11-03 15:35:00,60.8,36.3,30.17,NNE,13,4.0,6.0,40,0.00,,SKC,0.00,VWS V13.00,2013-11-03 21:35:00,
2013-11-03 15:40:00,60.6,36.2,30.17,NE,36,5.0,7.0,40,0.00,,SKC,0.00,VWS V13.00,2013-11-03 21:40:00,
2013-11-03 15:45:00,60.4,36.6,30.17,NE,49,1.0,7.0,41,0.00,,SKC,0.00,VWS V13.00,2013-11-03 21:45:00,
2013-11-03 15:50:00,60.3,35.3,30.17,NE,35,4.0,8.0,39,0.00,,SKC,0.00,VWS V13.00,2013-11-03 21:50:00,
2013-11-03 15:55:00,60.0,35.6,30.17,North,5,2.0,8.0,40,0.00,,SKC,0.00,VWS V13.00,2013-11-03 21:55:00,
2013-11-03 16:00:00,59.9,35.5,30.17,NNE,28,4.0,8.0,40,0.00,,SKC,0.00,VWS V13.00,2013-11-03 22:00:00,
2013-11-03 16:05:00,59.8,35.5,30.18,NNE,18,0.0,2.0,40,0.00,,SKC,0.00,VWS V13.00,2013-11-03 22:05:00,
2013-11-03 16:10:00,59.8,35.5,30.18,North,11,4.0,5.0,40,0.00,,SKC,0.00,VWS V13.00,2013-11-03 22:10:00,
2013-11-03 16:15:00,59.6,35.3,30.18,North,355,4.0,6.0,40,0.00,,SKC,0.00,VWS V13.00,2013-11-03 22:15:00,
2013-11-03 16:20:00,59.3,35.6,30.19,North,355,0.0,6.0,41,0.00,,SKC,0.00,VWS V13.00,2013-11-03 22:20:00,
2013-11-03 16:25:00,58.8,35.8,30.19,North,355,0.0,6.0,42,0.00,,SKC,0.00,VWS V13.00,2013-11-03 22:25:00,
2013-11-03 16:30:00,58.3,35.3,30.19,North,355,0.0,6.0,42,0.00,,SKC,0.00,VWS V13.00,2013-11-03 22:30:00,
2013-11-03 16:35:00,57.8,35.5,30.19,North,355,0.0,1.0,43,0.00,,SKC,0.00,VWS V13.00,2013-11-03 22:35:00,
2013-11-03 16:40:00,57.3,35.6,30.19,North,355,0.0,2.0,44,0.00,,SKC,0.00,VWS V13.00,2013-11-03 22:40:00,
2013-11-03 16:45:00,56.8,35.1,30.19,North,355,0.0,2.0,44,0.00,,SKC,0.00,VWS V13.00,2013-11-03 22:45:00,
2013-11-03 16:50:00,56.2,35.2,30.19,NNE,24,1.0,3.0,45,0.00,,SKC,0.00,VWS V13.00,2013-11-03 22:50:00,
2013-11-03 16:55:00,55.7,34.7,30.19,NNE,24,0.0,3.0,45,0.00,,SKC,0.00,VWS V13.00,2013-11-03 22:55:00,
2013-11-03 17:00:00,55.1,34.7,30.20,NNE,24,0.0,3.0,46,0.00,,SKC,0.00,VWS V13.00,2013-11-03 23:00:00,
2013-11-03 17:05:00,54.4,35.7,30.20,NNE,24,0.0,0.0,49,0.00,,SKC,0.00,VWS V13.00,2013-11-03 23:05:00,
2013-11-03 17:10:00,53.8,35.6,30.20,NNE,24,0.0,0.0,50,0.00,,SKC,0.00,VWS V13.00,2013-11-03 23:10:00,
2013-11-03 17:15:00,53.3,35.2,30.20,NNE,24,0.0,0.0,50,0.00,,SKC,0.00,VWS V13.00,2013-11-03 23:15:00,
2013-11-03 17:20:00,52.9,35.3,30.20,NNE,24,0.0,0.0,51,0.00,,SKC,0.00,VWS V13.00,2013-11-03 23:20:00,
2013-11-03 17:25:00,52.3,34.7,30.20,NNE,24,0.0,0.0,51,0.00,,SKC,0.00,VWS V13.00,2013-11-03 23:25:00,
2013-11-03 17:30:00,51.8,35.2,30.21,NNE,24,0.0,0.0,53,0.00,,SKC,0.00,VWS V13.00,2013-11-03 23:30:00,
2013-11-03 17:35:00,51.4,35.8,30.21,NNE,24,0.0,0.0,55,0.00,,SKC,0.00,VWS V13.00,2013-11-03 23:35:00,
2013-11-03 17:40:00,50.9,36.2,30.21,NNE,24,0.0,0.0,57,0.00,,SKC,0.00,VWS V13.00,2013-11-03 23:40:00,
2013-11-03 17:45:00,50.5,36.3,30.21,NNE,24,0.0,0.0,58,0.00,,SKC,0.00,VWS V13.00,2013-11-03 23:45:00,
2013-11-03 17:50:00,49.9,36.6,30.21,NNE,24,0.0,0.0,60,0.00,,SKC,0.00,VWS V13.00,2013-11-03 23:50:00,
2013-11-03 17:55:00,49.3,36.4,30.21,NNE,24,0.0,0.0,61,0.00,,SKC,0.00,VWS V13.00,2013-11-03 23:55:00,
2013-11-03 18:00:00,48.7,36.3,30.21,NNE,24,0.0,0.0,62,0.00,,SKC,0.00,VWS V13.00,2013-11-04 00:00:00,
2013-11-03 18:05:00,48.3,36.3,30.21,NNE,24,0.0,0.0,63,0.00,,SKC,0.00,VWS V13.00,2013-11-04 00:05:00,
2013-11-03 18:10:00,47.9,36.3,30.22,NNE,24,0.0,0.0,64,0.00,,SKC,0.00,VWS V13.00,2013-11-04 00:10:00,
2013-11-03 18:15:00,47.6,36.4,30.22,NNE,24,0.0,0.0,65,0.00,,SKC,0.00,VWS V13.00,2013-11-04 00:15:00,
2013-11-03 18:20:00,47.3,36.9,30.22,NNE,24,0.0,0.0,67,0.00,,SKC,0.00,VWS V13.00,2013-11-04 00:20:00,
2013-11-03 18:25:00,47.0,35.9,30.22,NNE,24,0.0,0.0,65,0.00,,SKC,0.00,VWS V13.00,2013-11-04 00:25:00,
2013-11-03 18:30:00,46.8,36.4,30.22,NNE,24,0.0,0.0,67,0.00,,SKC,0.00,VWS V13.00,2013-11-04 00:30:00,
2013-11-03 18:35:00,46.6,36.2,30.22,NNE,24,0.0,0.0,67,0.00,,SKC,0.00,VWS V13.00,2013-11-04 00:35:00,
2013-11-03 18:40:00,46.4,36.8,30.22,NNE,24,0.0,0.0,69,0.00,,SKC,0.00,VWS V13.00,2013-11-04 00:40:00,
2013-11-03 18:45:00,46.3,37.1,30.22,NNE,24,0.0,0.0,70,0.00,,SKC,0.00,VWS V13.00,2013-11-04 00:45:00,
2013-11-03 18:50:00,46.1,36.9,30.22,NNE,24,0.0,0.0,70,0.00,,SKC,0.00,VWS V13.00,2013-11-04 00:50:00,
2013-11-03 18:55:00,45.8,37.3,30.22,NNE,24,0.0,0.0,72,0.00,,SKC,0.00,VWS V13.00,2013-11-04 00:55:00,
2013-11-03 19:00:00,45.6,37.8,30.22,NNE,24,0.0,0.0,74,0.00,,SKC,0.00,VWS V13.00,2013-11-04 01:00:00,
2013-11-03 19:05:00,45.4,38.6,30.21,NNE,24,0.0,0.0,77,0.00,,SKC,0.00,VWS V13.00,2013-11-04 01:05:00,
2013-11-03 19:10:00,45.2,38.4,30.21,ESE,117,0.0,1.0,77,0.00,,SKC,0.00,VWS V13.00,2013-11-04 01:10:00,
2013-11-03 19:15:00,45.0,38.6,30.21,ESE,117,0.0,1.0,78,0.00,,SKC,0.00,VWS V13.00,2013-11-04 01:15:00,
2013-11-03 19:20:00,45.0,39.2,30.22,ESE,117,0.0,1.0,80,0.00,,SKC,0.00,VWS V13.00,2013-11-04 01:20:00,
2013-11-03 19:25:00,45.1,39.0,30.22,ESE,117,0.0,1.0,79,0.00,,SKC,0.00,VWS V13.00,2013-11-04 01:25:00,
2013-11-03 19:30:00,45.1,39.0,30.22,ESE,117,0.0,1.0,79,0.00,,SKC,0.00,VWS V13.00,2013-11-04 01:30:00,
2013-11-03 19:35:00,44.9,38.8,30.22,ESE,117,0.0,0.0,79,0.00,,SKC,0.00,VWS V13.00,2013-11-04 01:35:00,
2013-11-03 19:40:00,44.6,38.5,30.22,ESE,117,0.0,0.0,79,0.00,,SKC,0.00,VWS V13.00,2013-11-04 01:40:00,
2013-11-03 19:45:00,44.4,38.6,30.23,ESE,117,0.0,0.0,80,0.00,,SKC,0.00,VWS V13.00,2013-11-04 01:45:00,
2013-11-03 19:50:00,44.3,38.8,30.23,ESE,117,0.0,0.0,81,0.00,,SKC,0.00,VWS V13.00,2013-11-04 01:50:00,
2013-11-03 19:55:00,44.2,38.8,30.23,ESE,117,0.0,0.0,81,0.00,,SKC,0.00,VWS V13.00,2013-11-04 01:55:00,
2013-11-03 20:00:00,44.1,39.3,30.23,ESE,117,0.0,0.0,83,0.00,,SKC,0.00,VWS V13.00,2013-11-04 02:00:00,
2013-11-03 20:05:00,43.9,39.4,30.23,ESE,117,0.0,0.0,84,0.00,,SKC,0.00,VWS V13.00,2013-11-04 02:05:00,
2013-11-03 20:10:00,43.7,39.2,30.23,ESE,117,0.0,0.0,84,0.00,,SKC,0.00,VWS V13.00,2013-11-04 02:10:00,
2013-11-03 20:15:00,43.4,38.9,30.23,ESE,117,0.0,0.0,84,0.00,,SKC,0.00,VWS V13.00,2013-11-04 02:15:00,
2013-11-03 20:20:00,43.2,39.0,30.23,ESE,117,0.0,0.0,85,0.00,,SKC,0.00,VWS V13.00,2013-11-04 02:20:00,
2013-11-03 20:25:00,43.0,39.1,30.23,ESE,117,0.0,0.0,86,0.00,,SKC,0.00,VWS V13.00,2013-11-04 02:25:00,
2013-11-03 20:30:00,42.8,39.2,30.23,ESE,117,0.0,0.0,87,0.00,,SKC,0.00,VWS V13.00,2013-11-04 02:30:00,
2013-11-03 20:35:00,42.5,38.9,30.24,ESE,117,0.0,0.0,87,0.00,,SKC,0.00,VWS V13.00,2013-11-04 02:35:00,
2013-11-03 20:40:00,42.4,38.8,30.24,ESE,117,0.0,0.0,87,0.00,,SKC,0.00,VWS V13.00,2013-11-04 02:40:00,
2013-11-03 20:45:00,42.3,38.7,30.24,ESE,117,0.0,0.0,87,0.00,,SKC,0.00,VWS V13.00,2013-11-04 02:45:00,
2013-11-03 20:50:00,42.3,38.7,30.25,ESE,117,0.0,0.0,87,0.00,,SKC,0.00,VWS V13.00,2013-11-04 02:50:00,
2013-11-03 20:55:00,42.2,38.6,30.25,ESE,117,0.0,0.0,87,0.00,,SKC,0.00,VWS V13.00,2013-11-04 02:55:00,
2013-11-03 21:00:00,42.2,38.3,30.25,ESE,117,0.0,0.0,86,0.00,,SKC,0.00,VWS V13.00,2013-11-04 03:00:00,
2013-11-03 21:05:00,42.2,38.3,30.25,ESE,117,0.0,0.0,86,0.00,,SKC,0.00,VWS V13.00,2013-11-04 03:05:00,
2013-11-03 21:10:00,42.1,38.5,30.26,ESE,117,0.0,0.0,87,0.00,,SKC,0.00,VWS V13.00,2013-11-04 03:10:00,
2013-11-03 21:15:00,42.0,38.4,30.26,ESE,117,0.0,0.0,87,0.00,,SKC,0.00,VWS V13.00,2013-11-04 03:15:00,
2013-11-03 21:20:00,42.1,38.5,30.26,ESE,117,0.0,0.0,87,0.00,,SKC,0.00,VWS V13.00,2013-11-04 03:20:00,
2013-11-03 21:25:00,42.1,38.5,30.26,ESE,117,0.0,0.0,87,0.00,,SKC,0.00,VWS V13.00,2013-11-04 03:25:00,
2013-11-03 21:30:00,42.0,38.1,30.27,ESE,117,0.0,0.0,86,0.00,,SKC,0.00,VWS V13.00,2013-11-04 03:30:00,
2013-11-03 21:35:00,41.8,37.9,30.27,ESE,117,0.0,0.0,86,0.00,,SKC,0.00,VWS V13.00,2013-11-04 03:35:00,
2013-11-03 21:40:00,41.6,38.0,30.27,ESE,117,0.0,0.0,87,0.00,,SKC,0.00,VWS V13.00,2013-11-04 03:40:00,
2013-11-03 21:45:00,41.4,37.8,30.26,ESE,117,0.0,0.0,87,0.00,,SKC,0.00,VWS V13.00,2013-11-04 03:45:00,
2013-11-03 21:50:00,41.3,37.7,30.26,ESE,117,0.0,0.0,87,0.00,,SKC,0.00,VWS V13.00,2013-11-04 03:50:00,
2013-11-03 21:55:00,41.2,37.9,30.26,ESE,117,0.0,0.0,88,0.00,,SKC,0.00,VWS V13.00,2013-11-04 03:55:00,
2013-11-03 22:00:00,41.3,38.0,30.26,ESE,117,0.0,0.0,88,0.00,,SKC,0.00,VWS V13.00,2013-11-04 04:00:00,
2013-11-03 22:05:00,41.1,37.8,30.26,ESE,117,0.0,0.0,88,0.00,,SKC,0.00,VWS V13.00,2013-11-04 04:05:00,
2013-11-03 22:10:00,40.9,37.9,30.26,ESE,117,0.0,0.0,89,0.00,,SKC,0.00,VWS V13.00,2013-11-04 04:10:00,
2013-11-03 22:15:00,40.7,38.0,30.26,ESE,117,0.0,0.0,90,0.00,,SKC,0.00,VWS V13.00,2013-11-04 04:15:00,
2013-11-03 22:20:00,40.6,38.2,30.26,ESE,117,0.0,0.0,91,0.00,,SKC,0.00,VWS V13.00,2013-11-04 04:20:00,
2013-11-03 22:25:00,40.3,37.9,30.26,ESE,117,0.0,0.0,91,0.00,,SKC,0.00,VWS V13.00,2013-11-04 04:25:00,
2013-11-03 22:30:00,40.1,37.7,30.26,ESE,117,0.0,0.0,91,0.00,,SKC,0.00,VWS V13.00,2013-11-04 04:30:00,
2013-11-03 22:35:00,39.9,37.5,30.26,ESE,117,0.0,0.0,91,0.00,,SKC,0.00,VWS V13.00,2013-11-04 04:35:00,
2013-11-03 22:40:00,39.7,37.3,30.26,ESE,117,0.0,0.0,91,0.00,,SKC,0.00,VWS V13.00,2013-11-04 04:40:00,
2013-11-03 22:45:00,39.5,37.1,30.26,ESE,117,0.0,0.0,91,0.00,,SKC,0.00,VWS V13.00,2013-11-04 04:45:00,
2013-11-03 22:50:00,39.2,36.8,30.26,ESE,117,0.0,0.0,91,0.00,,SKC,0.00,VWS V13.00,2013-11-04 04:50:00,
2013-11-03 22:55:00,38.9,36.5,30.27,ESE,117,0.0,0.0,91,0.00,,SKC,0.00,VWS V13.00,2013-11-04 04:55:00,
2013-11-03 23:00:00,38.8,37.0,30.27,ESE,117,0.0,0.0,93,0.00,,SKC,0.00,VWS V13.00,2013-11-04 05:00:00,
2013-11-03 23:01:00,38.8,37.0,30.27,ESE,117,0.0,0.0,93,0.00,,SKC,0.00,VWS V13.00,2013-11-04 05:01:00,
2013-11-03 23:02:00,38.8,37.0,30.27,ESE,117,0.0,0.0,93,0.00,,SKC,0.00,VWS V13.00,2013-11-04 05:02:00,
2013-11-03 23:07:00,38.8,37.2,30.26,ESE,117,0.0,0.0,94,0.00,,SKC,0.00,VWS V13.00,2013-11-04 05:07:00,
2013-11-03 23:12:00,38.7,37.1,30.27,ESE,117,0.0,0.0,94,0.00,,SKC,0.00,VWS V13.00,2013-11-04 05:12:00,
2013-11-03 23:17:00,38.7,37.1,30.27,ESE,117,0.0,0.0,94,0.00,,SKC,0.00,VWS V13.00,2013-11-04 05:17:00,
2013-11-03 23:22:00,38.5,36.9,30.27,ESE,117,0.0,0.0,94,0.00,,SKC,0.00,VWS V13.00,2013-11-04 05:22:00,
2013-11-03 23:27:00,38.4,36.8,30.27,ESE,117,0.0,0.0,94,0.00,,SKC,0.00,VWS V13.00,2013-11-04 05:27:00,
2013-11-03 23:32:00,38.3,36.7,30.27,ESE,117,0.0,0.0,94,0.00,,SKC,0.00,VWS V13.00,2013-11-04 05:32:00,
2013-11-03 23:37:00,38.3,36.7,30.27,ESE,117,0.0,0.0,94,0.00,,SKC,0.00,VWS V13.00,2013-11-04 05:37:00,
2013-11-03 23:42:00,38.2,36.4,30.27,ESE,117,0.0,0.0,93,0.00,,SKC,0.00,VWS V13.00,2013-11-04 05:42:00,
2013-11-03 23:47:00,38.0,36.4,30.27,ESE,117,0.0,0.0,94,0.00,,SKC,0.00,VWS V13.00,2013-11-04 05:47:00,
2013-11-03 23:52:00,38.0,36.4,30.27,ESE,117,0.0,0.0,94,0.00,,SKC,0.00,VWS V13.00,2013-11-04 05:52:00,
2013-11-03 23:57:00,37.9,36.3,30.27,ESE,117,0.0,0.0,94,0.00,,SKC,0.00,VWS V13.00,2013-11-04 05:57:00,